Weather Roundup
Issued by NWS Chicago, IL

Home | Current Version | Previous Version | Text Only | Print | Product List | Glossary Off
Versions: 1 2 3 4 5 6 7 8 9 10 11 12 13 14 15 16 17 18 19 20 21 22 23 24 25 26 27 28 29 30 31 32 33 34 35 36 37 38 39 40 41 42 43 44 45 46 47 48 49 50

000
NZUS59 KLOT 231506
HRRLOT

CHICAGO AREA WEATHER ROUNDUP
NATIONAL WEATHER SERVICE CHICAGO/ROMEOVILLE IL
1000 AM CDT SAT AUG 23 2014

NOTE: "FAIR" INDICATES FEW OR NO CLOUDS BELOW 12,000 FEET WITH NO
SIGNIFICANT WEATHER AND/OR OBSTRUCTIONS TO VISIBILITY.

* THESE STATIONS ARE NOT UNDER NWS QUALITY CONTROL. THEY ALSO MAY NOT
  REPORT WEATHER SUCH AS PRECIPITATION OR FOG.

ILZ005-006-012>014-019>023-231600-
NORTHEAST ILLINOIS

CITY           SKY/WX    TMP DP  RH WIND       PRES   REMARKS
OHARE          CLOUDY    81  73  76 CALM      29.98F HAZE    HX  86
MIDWAY         CLOUDY    83  75  77 S5        29.98S HX  90
AURORA         PTSUNNY   82  73  74 SE7       29.99S HX  87
LANSING*       MOSUNNY   82  73  75 CALM      29.99S HX  87
JOLIET*        MOSUNNY   81  72  74 SE5       29.99S HX  86
WAUKEGAN       CLOUDY    73  71  93 CALM      30.00S FOG
DUPAGE AIRPORT PTSUNNY   83  74  74 VRB3      29.99S HX  89
WHEELING       PTSUNNY   80  73  79 VRB3      30.00F HX  84
KANKAKEE*      MOSUNNY   81  74  78 SE6       30.00S HX  87
MORRIS*        MOSUNNY   82  75  78 SE7       29.98R HX  89
LEWIS AIRPORT* MOSUNNY   81  76  85 S6        30.00R HX  86
NORTHERLY IS     N/A     73  71  93 NE3         N/A
$$

WIZ051-052-058>065-066-070>072-231600-
SOUTHEAST WISCONSIN

CITY           SKY/WX    TMP DP  RH WIND       PRES   REMARKS
MILWAUKEE      FOG       72  71  97 E5        30.01S VSB 1/2
KENOSHA*       CLOUDY    73  72  96 E5        30.01S FOG
RACINE*        FOG       73  71  93 E5        30.02F VSB 1/2
BURLINGTON     CLOUDY    71  71  99 NE3       30.01S FOG
WAUKESHA       FOG       70  70 100 E6        30.03R VSB 1
WEST BEND      CLOUDY    72  70  94 E5        30.02S FOG
$$

INZ001>003-010>013-019-020-231600-
NORTHWEST INDIANA

CITY           SKY/WX    TMP DP  RH WIND       PRES   REMARKS
GARY*          PTSUNNY   82  73  74 CALM      29.97F HX  88
MICHIGAN CITY* NOT AVBL
RENSSELAER*    NOT AVBL
VALPARAISO     MOSUNNY   81  73  76 S6        30.01R HX  86
$$

LMZ740>746-231600-
SOUTHERN LAKE MICHIGAN

STATION/POSITION TIME  SKY/WX   TEMP WIND        PRES    VSBY
                                AIR  DIR/SP/G
                 (UTC)          (F)  (DEG/KT/KT) (MB)    (MI)
HARRISON CRIB    1500            72   20/  3/  4   N/A
BURNHAM HARBOR   1500            73   30/  2/  5   N/A
CALUMET HARBOR   1500            75   40/  4/  6 1014.4S
BURNS HARBOR     NOT AVBL
MICHIGAN CITY    1500            77  290/  3/  4   N/A
$$

ABBREVIATIONS USED IN REMARKS
   TC - TEMPERATURE IN CELSIUS
  WCI - WIND CHILL INDEX
   HX - HEAT INDEX
  VSB - VISIBILITY
$$



USA.gov is the U.S. government's official web portal to all federal, state and local government web resources and services.